Weather History for Walla Walla, WA

Change the Weather History Date:

Friday, February 14, 2014

  Actual Average Record
Temperature  
Mean Temperature 49 °F -  
Max Temperature 54 °F 46 °F 66 °F (1971)
Min Temperature 43 °F 33 °F 9 °F (1990)
Degree Days  
Heating Degree Days 16    
Moisture  
Dew Point 38 °F    
Average Humidity 66    
Maximum Humidity 77    
Minimum Humidity 33    
Precipitation  
Precipitation 0.07 in - - ()
Sea Level Pressure  
Sea Level Pressure 29.88 in    
Wind  
Wind Speed 14 mph (SSW)    
Max Wind Speed 24 mph    
Max Gust Speed 32 mph    
Visibility 10 miles    
Events Rain    
Averages and records for this station are not official NWS values.
T = Trace of Precipitation, MM = Missing Value Source: NWS Daily Summary

Daily Weather History Graph

Daily Weather History Graph

Search for Another Location

Airport:

Trip Planner

Search our weather history database for the weather conditions in past years. The results will help you decide how hot, cold, wet, or windy it might be!

Date:

Astronomy

Feb. 14, 2014 Rise Set
Actual Time 6:57 AM PST 5:17 PM PST
Civil Twilight 6:26 AM PST 5:48 PM PST
Nautical Twilight 5:51 AM PST 6:23 PM PST
Astronomical Twilight 5:16 AM PST 6:58 PM PST
Moon 5:29 PM PST (2/14) 6:24 AM PST (2/14)
Length of Visible Light 11h 22m
Length of Day
10h 20m
Full, 100% of the Moon is Illuminated
Feb 14
Full
Feb 14
Full
Feb 22
Last Quarter
Mar 1
New
Mar 8
First Quarter

Hourly Weather History & Observations

Time (PST) Temp. Windchill Dew Point Humidity Pressure Visibility Wind Dir Wind Speed Gust Speed Precip Events Conditions
12:53 AM 51.1 °F - 25.0 °F 36% 29.89 in 10.0 mi SSE 11.5 mph - N/A   Mostly Cloudy
1:53 AM 54.0 °F - 25.0 °F 33% 29.85 in 10.0 mi SSE 20.7 mph - N/A   Overcast
2:53 AM 50.0 °F - 34.0 °F 54% 29.86 in 10.0 mi South 21.9 mph 32.2 mph N/A   Overcast
3:53 AM 48.0 °F - 37.9 °F 68% 29.84 in 9.0 mi SSE 9.2 mph - 0.01 in Rain Light Rain
4:53 AM 48.0 °F - 39.0 °F 71% 29.79 in 10.0 mi South 6.9 mph - 0.03 in Rain Light Rain
5:53 AM 51.1 °F - 39.9 °F 66% 29.74 in 10.0 mi South 19.6 mph 27.6 mph 0.00 in Rain Light Rain
6:53 AM 53.1 °F - 39.9 °F 61% 29.73 in 10.0 mi South 24.2 mph 31.1 mph 0.00 in   Overcast
7:53 AM 53.1 °F - 39.9 °F 61% 29.74 in 10.0 mi SSW 16.1 mph - N/A   Overcast
8:53 AM 50.0 °F - 43.0 °F 77% 29.79 in 5.0 mi WSW 12.7 mph - 0.02 in Rain Light Rain
9:53 AM 51.1 °F - 44.1 °F 77% 29.81 in 10.0 mi SW 11.5 mph - 0.00 in   Overcast
10:53 AM 52.0 °F - 43.0 °F 71% 29.83 in 10.0 mi SSW 9.2 mph - 0.01 in   Overcast
11:53 AM 52.0 °F - 41.0 °F 66% 29.86 in 10.0 mi SW 23.0 mph - N/A   Overcast
12:53 PM 53.1 °F - 39.9 °F 61% 29.87 in 10.0 mi SW 17.3 mph 24.2 mph N/A   Overcast
1:53 PM 53.1 °F - 42.1 °F 66% 29.88 in 10.0 mi SW 12.7 mph - N/A   Mostly Cloudy
2:53 PM 53.1 °F - 42.1 °F 66% 29.89 in 10.0 mi SW 13.8 mph 21.9 mph N/A   Mostly Cloudy
3:53 PM 51.1 °F - 39.9 °F 66% 29.90 in 10.0 mi SSW 16.1 mph - N/A   Clear
4:53 PM 50.0 °F - 39.9 °F 68% 29.93 in 10.0 mi SSW 11.5 mph - N/A   Clear
5:53 PM 50.0 °F - 39.0 °F 66% 29.95 in 10.0 mi South 10.4 mph - N/A   Overcast
6:53 PM 46.9 °F - 37.9 °F 71% 29.96 in 10.0 mi South 4.6 mph - N/A   Mostly Cloudy
7:53 PM 46.0 °F 40.6 °F 37.9 °F 73% 29.97 in 10.0 mi South 11.5 mph - N/A   Scattered Clouds
8:53 PM 45.0 °F 39.7 °F 37.0 °F 74% 29.99 in 10.0 mi South 10.4 mph - N/A   Clear
9:53 PM 46.0 °F 43.9 °F 37.0 °F 71% 29.99 in 10.0 mi SSE 4.6 mph - N/A   Clear
10:53 PM 44.1 °F 39.5 °F 37.0 °F 76% 29.98 in 10.0 mi South 8.1 mph - N/A   Clear
11:53 PM 43.0 °F 39.5 °F 36.0 °F 76% 29.98 in 10.0 mi SSE 5.8 mph - N/A   Clear